When you browse on this site, cookies collect data to enhance your experience and personalize the content and advertising you see.
Visit our Privacy Policy to learn more. By continuing to use the site, you agree to this use of cookies and data.
  • In Sweden
  • List of Countries
  • For 7 days
  • Water Temperature
  • Weather Map
  • Weather Widgets
  • user-avatar
    Login

    Hourly Weather Dobryvoda

    Today, 18 November, Monday

    Time Temperature Precipitation Wind Pressure Humidity
    00:00 +8°C° 0 mm 5 mps 746 mmHg 75%
    01:00 +7°C° 0 mm 5 mps 745 mmHg 73%
    02:00 +7°C° 0 mm 5 mps 745 mmHg 71%
    03:00 +7°C° 0 mm 5 mps 745 mmHg 71%
    04:00 +7°C° 0 mm 5 mps 744 mmHg 71%
    05:00 +6°C° 0 mm 5 mps 744 mmHg 71%
    06:00 +6°C° 0 mm 5 mps 744 mmHg 72%
    07:00 +6°C° 0 mm 5 mps 744 mmHg 73%
    08:00 +6°C° 0 mm 5 mps 744 mmHg 74%
    09:00 +7°C° 0 mm 5 mps 744 mmHg 71%
    10:00 +9°C° 0 mm 6 mps 744 mmHg 67%
    11:00 +10°C° 0 mm 6 mps 744 mmHg 63%
    12:00 +11°C° 0 mm 6 mps 744 mmHg 63%
    13:00 +11°C° 0 mm 6 mps 744 mmHg 62%
    14:00 +11°C° 0 mm 6 mps 744 mmHg 62%
    15:00 +10°C° 0 mm 5 mps 744 mmHg 68%
    16:00 +9°C° 0 mm 5 mps 744 mmHg 75%
    17:00 +8°C° 0 mm 4 mps 744 mmHg 82%
    18:00 +8°C° 0 mm 4 mps 744 mmHg 84%
    19:00 +8°C° 0 mm 4 mps 745 mmHg 86%
    20:00 +8°C° 0 mm 3 mps 745 mmHg 88%
    21:00 +9°C° 0 mm 3 mps 745 mmHg 89%
    22:00 +9°C° 0 mm 3 mps 745 mmHg 89%
    23:00 +9°C° 0 mm 3 mps 746 mmHg 89%

    Tomorrow, 19 November, Tuesday

    Time Temperature Precipitation Wind Pressure Humidity
    00:00 +9°C° 0 mm 3 mps 746 mmHg 89%
    01:00 +9°C° 0 mm 3 mps 747 mmHg 89%
    02:00 +9°C° 0 mm 3 mps 747 mmHg 88%
    03:00 +9°C° 0 mm 2 mps 747 mmHg 88%
    04:00 +9°C° 0 mm 2 mps 747 mmHg 88%
    05:00 +9°C° 0 mm 2 mps 747 mmHg 87%
    06:00 +8°C° 0 mm 2 mps 748 mmHg 87%
    07:00 +8°C° 0 mm 2 mps 748 mmHg 87%
    08:00 +8°C° 0 mm 2 mps 748 mmHg 87%
    09:00 +9°C° 0 mm 2 mps 749 mmHg 82%
    10:00 +12°C° 0 mm 1 mps 749 mmHg 77%
    11:00 +13°C° 0 mm 1 mps 749 mmHg 72%
    12:00 +14°C° 0 mm 2 mps 749 mmHg 71%
    13:00 +14°C° 0 mm 2 mps 749 mmHg 69%
    14:00 +15°C° 0 mm 2 mps 749 mmHg 68%
    15:00 +14°C° 0 mm 2 mps 749 mmHg 74%
    16:00 +12°C° 0 mm 2 mps 748 mmHg 80%
    17:00 +10°C° 0 mm 2 mps 748 mmHg 86%
    18:00 +10°C° 0 mm 3 mps 748 mmHg 88%
    19:00 +10°C° 0 mm 3 mps 748 mmHg 90%
    20:00 +9°C° 0 mm 3 mps 749 mmHg 92%
    21:00 +9°C° 0 mm 3 mps 748 mmHg 93%
    22:00 +9°C° 0 mm 2 mps 748 mmHg 93%
    23:00 +9°C° 0 mm 2 mps 748 mmHg 93%

    Day after tomorrow, 20 November, Wednesday

    Time Temperature Precipitation Wind Pressure Humidity
    00:00 +9°C° 0 mm 3 mps 748 mmHg 94%
    01:00 +9°C° 0 mm 3 mps 748 mmHg 95%
    02:00 +9°C° 0 mm 3 mps 749 mmHg 95%
    03:00 +9°C° 0 mm 3 mps 748 mmHg 96%
    04:00 +9°C° 0 mm 3 mps 748 mmHg 96%
    05:00 +10°C° 0 mm 4 mps 748 mmHg 97%
    06:00 +10°C° 0 mm 4 mps 748 mmHg 96%
    07:00 +10°C° 0 mm 4 mps 748 mmHg 95%
    08:00 +10°C° 0 mm 4 mps 748 mmHg 94%
    09:00 +11°C° 0 mm 4 mps 748 mmHg 91%
    10:00 +11°C° 0 mm 4 mps 748 mmHg 88%
    11:00 +12°C° 0 mm 5 mps 748 mmHg 86%
    12:00 +12°C° 0 mm 5 mps 748 mmHg 84%
    13:00 +12°C° 0 mm 5 mps 748 mmHg 82%
    14:00 +13°C° 0 mm 5 mps 748 mmHg 81%
    15:00 +12°C° 0 mm 5 mps 747 mmHg 81%
    16:00 +12°C° 0 mm 5 mps 747 mmHg 82%
    17:00 +12°C° 0 mm 5 mps 747 mmHg 82%
    18:00 +12°C° 0 mm 5 mps 747 mmHg 81%
    19:00 +10°C° 0 mm 5 mps 747 mmHg 80%
    20:00 +10°C° 0 mm 6 mps 747 mmHg 79%
    21:00 +10°C° 0 mm 6 mps 747 mmHg 78%
    22:00 +9°C° 0 mm 6 mps 747 mmHg 76%
    23:00 +9°C° 0 mm 6 mps 747 mmHg 75%

    21 November, Thursday

    Time Temperature Precipitation Wind Pressure Humidity
    00:00 +8°C° 0 mm 6 mps 747 mmHg 74%
    01:00 +8°C° 0 mm 6 mps 748 mmHg 73%
    02:00 +7°C° 0 mm 6 mps 748 mmHg 72%
    03:00 +7°C° 0 mm 6 mps 748 mmHg 71%
    04:00 +7°C° 0 mm 6 mps 748 mmHg 71%
    05:00 +7°C° 0 mm 6 mps 747 mmHg 70%
    06:00 +5°C° 0 mm 6 mps 748 mmHg 70%
    07:00 +5°C° 0 mm 7 mps 748 mmHg 71%
    08:00 +5°C° 0 mm 7 mps 748 mmHg 72%
    09:00 +5°C° 0 mm 7 mps 749 mmHg 70%
    10:00 +5°C° 0 mm 7 mps 749 mmHg 69%
    11:00 +5°C° 0 mm 8 mps 749 mmHg 67%
    12:00 +5°C° 0 mm 8 mps 749 mmHg 65%
    13:00 +5°C° 0 mm 8 mps 749 mmHg 62%
    14:00 +6°C° 0 mm 8 mps 749 mmHg 59%
    15:00 +5°C° 0 mm 7 mps 749 mmHg 63%
    16:00 +4°C° 0 mm 7 mps 749 mmHg 67%
    17:00 +3°C° 0 mm 7 mps 750 mmHg 71%
    18:00 +3°C° 0 mm 7 mps 750 mmHg 70%
    19:00 +3°C° 0 mm 7 mps 750 mmHg 69%
    20:00 +3°C° 0 mm 7 mps 750 mmHg 68%
    21:00 +2°C° 0 mm 7 mps 751 mmHg 68%
    22:00 +2°C° 0 mm 7 mps 751 mmHg 68%
    23:00 0°C° 0 mm 7 mps 751 mmHg 68%

    22 November, Friday

    Time Temperature Precipitation Wind Pressure Humidity
    00:00 -1°C° 0 mm 6 mps 751 mmHg 67%
    01:00 -1°C° 0 mm 6 mps 751 mmHg 66%
    02:00 -2°C° 0 mm 6 mps 751 mmHg 65%
    03:00 -2°C° 0 mm 6 mps 751 mmHg 64%
    04:00 -3°C° 0 mm 6 mps 751 mmHg 63%
    05:00 -3°C° 0 mm 6 mps 751 mmHg 62%
    06:00 -4°C° 0 mm 6 mps 751 mmHg 61%
    07:00 -4°C° 0 mm 6 mps 751 mmHg 60%
    08:00 -5°C° 0 mm 6 mps 751 mmHg 59%
    09:00 -4°C° 0 mm 7 mps 752 mmHg 57%
    10:00 -4°C° 0 mm 7 mps 752 mmHg 54%
    11:00 -3°C° 0 mm 7 mps 752 mmHg 52%
    12:00 -3°C° 0 mm 7 mps 752 mmHg 52%
    13:00 -2°C° 0 mm 6 mps 751 mmHg 52%
    14:00 -2°C° 0 mm 6 mps 751 mmHg 51%
    15:00 -2°C° 0 mm 6 mps 751 mmHg 54%
    16:00 -3°C° 0 mm 6 mps 751 mmHg 56%
    17:00 -4°C° 0 mm 5 mps 751 mmHg 58%
    18:00 -4°C° 0 mm 6 mps 751 mmHg 57%
    19:00 -5°C° 0 mm 6 mps 751 mmHg 57%
    20:00 -5°C° 0 mm 6 mps 751 mmHg 56%
    21:00 -5°C° 0 mm 6 mps 751 mmHg 56%
    22:00 -6°C° 0 mm 6 mps 751 mmHg 56%
    23:00 -6°C° 0 mm 6 mps 751 mmHg 56%

    23 November, Saturday

    Time Temperature Precipitation Wind Pressure Humidity
    00:00 -6°C° 0 mm 6 mps 751 mmHg 56%
    01:00 -8°C° 0 mm 6 mps 750 mmHg 57%
    02:00 -8°C° 0 mm 6 mps 750 mmHg 57%
    03:00 -8°C° 0 mm 6 mps 750 mmHg 60%
    04:00 -8°C° 0 mm 6 mps 750 mmHg 62%
    05:00 -9°C° 0 mm 6 mps 750 mmHg 64%
    06:00 -9°C° 0 mm 6 mps 750 mmHg 69%
    07:00 -9°C° 0 mm 6 mps 749 mmHg 73%
    08:00 -9°C° 0 mm 6 mps 749 mmHg 77%
    09:00 -8°C° 0 mm 6 mps 749 mmHg 75%
    10:00 -5°C° 0 mm 6 mps 749 mmHg 74%
    11:00 -4°C° 0 mm 7 mps 749 mmHg 72%
    12:00 -4°C° 0 mm 7 mps 749 mmHg 71%
    13:00 -3°C° 0 mm 7 mps 748 mmHg 69%
    14:00 -2°C° 0 mm 7 mps 748 mmHg 67%
    15:00 -2°C° 0 mm 6 mps 748 mmHg 69%
    16:00 -2°C° 0 mm 5 mps 748 mmHg 71%
    17:00 -2°C° 0 mm 5 mps 748 mmHg 73%
    18:00 -4°C° 0 mm 5 mps 748 mmHg 74%
    19:00 -4°C° 0 mm 5 mps 748 mmHg 75%
    20:00 -4°C° 0 mm 5 mps 748 mmHg 76%
    21:00 -4°C° 0 mm 5 mps 748 mmHg 75%
    22:00 -4°C° 0 mm 5 mps 748 mmHg 74%
    23:00 -4°C° 0 mm 5 mps 748 mmHg 73%
    Show more